Weather History for KCAK - March, 2014

Change the Weather History Date:

Sunday, March 23, 2014

  Actual Average Record
Temperature  
Mean Temperature 27 °F 40 °F  
Max Temperature 36 °F 50 °F 82 °F (2012)
Min Temperature 18 °F 31 °F 3 °F (1906)
Degree Days  
Heating Degree Days 38 25  
Month to date heating degree days 770 665  
Since 1 July heating degree days 5593 5209  
Cooling Degree Days 0 0  
Month to date cooling degree days 0 0  
Year to date cooling degree days 0 0  
Moisture  
Dew Point 16 °F    
Average Humidity 57    
Maximum Humidity 75    
Minimum Humidity 38    
Precipitation  
Precipitation 0.00 in 0.11 in 0.93 in (1965)
Month to date precipitation 0.88 2.13  
Year to date precipitation 4.39 7.05  
Snow  
Snow 0.00 in 0.20 in - ()
Month to date snowfall 6.6 6.7  
Since 1 July snowfall 65.9 43.2  
Snow Depth 0.00 in    
Sea Level Pressure  
Sea Level Pressure 30.25 in    
Wind  
Wind Speed 11 mph (NNW)    
Max Wind Speed 17 mph    
Max Gust Speed 17 mph    
Visibility 9 miles    
Events Snow    
T = Trace of Precipitation, MM = Missing Value Source: NWS Daily Summary

Daily Weather History Graph

Daily Weather History Graph

Search for Another Location

Airport or City:

Trip Planner

Search our weather history database for the weather conditions in past years. The results will help you decide how hot, cold, wet, or windy it might be!

Date:

Astronomy

Mar. 23, 2014 Rise Set
Actual Time 7:24 AM EDT 7:41 PM EDT
Civil Twilight 6:56 AM EDT 8:08 PM EDT
Nautical Twilight 6:24 AM EDT 8:40 PM EDT
Astronomical Twilight 5:51 AM EDT 9:13 PM EDT
Moon 1:58 AM EDT (3/23) 12:01 PM EDT (3/23)
Length of Visible Light 13h 11m
Length of Day
12h 16m
Waning Gibbous, 55% of the Moon is Illuminated
Mar 23
Waning Gibbous
Mar 23
Last Quarter
Mar 30
New
Apr 7
First Quarter
Apr 15
Full

Hourly Weather History & Observations

Time (EDT) Temp. Windchill Dew Point Humidity Pressure Visibility Wind Dir Wind Speed Gust Speed Precip Events Conditions
12:51 AM 35.1 °F 28.6 °F 27.0 °F 72% 30.14 in 10.0 mi WNW 8.1 mph - N/A   Overcast
1:51 AM 35.1 °F 25.9 °F 27.0 °F 72% 30.16 in 10.0 mi NNW 13.8 mph - N/A   Overcast
2:51 AM 33.1 °F 24.4 °F 26.1 °F 75% 30.16 in 10.0 mi North 11.5 mph - N/A   Overcast
3:51 AM 32.0 °F 24.2 °F 24.1 °F 73% 30.16 in 10.0 mi North 9.2 mph - N/A   Overcast
4:51 AM 30.0 °F 19.5 °F 23.0 °F 75% 30.17 in 10.0 mi North 13.8 mph - N/A   Overcast
5:51 AM 28.9 °F 19.2 °F 21.0 °F 72% 30.20 in 10.0 mi North 11.5 mph - N/A   Overcast
6:51 AM 26.1 °F 15.6 °F 17.1 °F 69% 30.22 in 10.0 mi North 11.5 mph - N/A   Overcast
7:51 AM 26.1 °F 15.6 °F 16.0 °F 66% 30.25 in 10.0 mi North 11.5 mph - N/A   Mostly Cloudy
8:43 AM 26.6 °F 14.3 °F 19.4 °F 74% 30.21 in 2.0 mi North 16.1 mph - 0.00 in Snow Light Snow
8:51 AM 26.1 °F 13.6 °F 19.9 °F 78% 30.25 in 2.0 mi North 16.1 mph - 0.00 in Snow Light Snow
9:51 AM 27.0 °F 14.7 °F 18.0 °F 69% 30.26 in 2.0 mi North 16.1 mph - N/A Snow Light Snow
10:51 AM 28.9 °F 18.6 °F 16.0 °F 58% 30.28 in 6.0 mi North 12.7 mph - N/A Snow Light Snow
11:51 AM 30.0 °F 19.1 °F 12.0 °F 47% 30.28 in 8.0 mi North 15.0 mph - N/A Snow Light Snow
12:51 PM 32.0 °F 21.6 °F 13.1 °F 46% 30.27 in 8.0 mi North 15.0 mph - N/A   Overcast
1:51 PM 35.1 °F 25.5 °F 15.1 °F 44% 30.26 in 10.0 mi North 15.0 mph - N/A   Mostly Cloudy
2:51 PM 34.0 °F 25.0 °F 12.0 °F 40% 30.25 in 10.0 mi NNW 12.7 mph - N/A   Mostly Cloudy
3:51 PM 30.7 °F 19.2 °F 10.4 °F 43% 30.25 in 10.0 mi WNW 17.3 mph - N/A   Scattered Clouds
4:51 PM 28.8 °F 16.6 °F 7.5 °F 41% 30.25 in 10.0 mi NNW 17.3 mph - N/A   Scattered Clouds
5:51 PM 27.7 °F 17.6 °F 5.9 °F 40% 30.27 in 10.0 mi NNW 11.5 mph - N/A   Scattered Clouds
6:51 PM 24.6 °F 13.8 °F 7.5 °F 48% 30.30 in 10.0 mi NNW 11.5 mph - N/A   Partly Cloudy
7:51 PM 21.9 °F 10.4 °F 11.1 °F 63% 30.33 in 10.0 mi NNW 11.5 mph - N/A   Partly Cloudy
8:51 PM 19.0 °F 11.1 °F 12.0 °F 74% 30.34 in 10.0 mi NNW 5.8 mph - N/A   Partly Cloudy
9:51 PM 18.3 °F - 6.4 °F 60% 30.35 in 10.0 mi Calm Calm - N/A   Partly Cloudy
10:51 PM 18.3 °F - 6.4 °F 60% 30.35 in 10.0 mi Calm Calm - N/A   Partly Cloudy
11:51 PM 19.0 °F - 6.1 °F 57% 30.35 in 10.0 mi Calm Calm - N/A   Scattered Clouds